Regional Weather Roundup
Issued by NWS

Home | Current Version | Previous Version | Text Only | Print | Product List | Glossary On
Versions: 1 2 3 4 5 6 7 8 9 10 11 12 13 14 15 16 17 18 19 20 21 22 23 24 25 26 27 28 29 30 31 32 33 34 35 36 37 38 39 40 41 42 43 44 45 46 47 48 49 50
471
ASUS43 KDTX 220101
RWRMI
MICHIGAN HOURLY REGIONAL WEATHER ROUNDUP
NATIONAL WEATHER SERVICE DETROIT/PONTIAC MI
900 PM EDT SAT APR 21 2018

NOTE: "FAIR" INDICATES FEW OR NO CLOUDS BELOW 12,000 FEET WITH NO
SIGNIFICANT WEATHER AND/OR OBSTRUCTION TO VISIBILITY.

MIZ047>049-052>055-059>063-066>070-074>076-081>083-220200-
SOUTHEAST LOWER MICHIGAN

CITY           SKY/WX    TMP DP  RH WIND       PRES   REMARKS
ADRIAN         FAIR      47  25  42 SE5       30.40R
ALMA           FAIR      50  33  53 CALM      30.37S
ANN ARBOR      FAIR      47  27  45 SE8       30.40R
BAD AXE        FAIR      47  20  34 CALM      30.40R
CARO           FAIR      44  32  62 NE3       30.38R
DETROIT CITY   FAIR      47  28  47 S5        30.41S
DETROIT        CLOUDY    46  23  40 S6        30.41S
FLINT          FAIR      50  28  42 CALM      30.38S
GROSSE ILE     FAIR      41  31  68 S3        30.40S
HILLSDALE      FAIR      46  25  42 E3        30.37S
HOWELL         FAIR      50  23  34 CALM      30.37S

CITY           SKY/WX    TMP DP  RH WIND       PRES   REMARKS
JACKSON        FAIR      51  22  31 SE3       30.38R
LAMBERTVILLE   FAIR      47  25  41 CALM      30.40S
LANSING        FAIR      52  29  41 CALM      30.38R
LAPEER         FAIR      48  20  33 S6        30.39R
MASON          FAIR      52  20  28 CALM      30.37S
MT. CLEMENS    MOCLDY    44  28  52 S3        30.38F
PONTIAC        CLOUDY    50  21  32 SE5       30.38R
PORT HOPE        N/A     44  22  41 S6        30.38R
PORT HURON     FAIR      46  23  39 S3        30.41R
TRI CITIES     FAIR      53  28  38 CALM      30.38R
MIDLAND        FAIR      52  29  40 SE3       30.37R
TROY           FAIR      51  12  21 CALM      30.41S
SAGINAW HB     FAIR      50  30  46 CALM      30.38R
$$
MIZ043>046-050>051-056>058-064>065-071>073-077>080-220200-
SOUTHWEST LOWER MICHIGAN

CITY           SKY/WX    TMP DP  RH WIND       PRES   REMARKS
BATTLE CREEK   FAIR      53  26  35 SE6       30.36S
BENTON HARBOR  CLOUDY    48  20  32 CALM      30.37S
BIG RAPIDS     FAIR      51  12  21 NW3       30.35R
COLDWATER      MOCLDY    52  26  35 E5        30.36S
HOLLAND        FAIR      44  25  47 CALM      30.38S
GRAND RAPIDS   MOCLDY    52  20  28 W5        30.37R
IONIA          FAIR      51  25  35 CALM      30.36S
KALAMAZOO      FAIR      54  24  31 N5        30.37R
LUDINGTON      FAIR      42  19  38 CALM      30.37S
MARSHALL       FAIR      49  24  37 E3        30.36S
MOUNT PLEASANT FAIR      52  30  43 SE3       30.36R
MUSKEGON       FAIR      44  19  36 SW3       30.38R
SOUTH HAVEN    MOCLDY    46  27  47 CALM      30.37S
$$
MIZ016>042-220200-
NORTHERN LOWER MICHIGAN

CITY           SKY/WX    TMP DP  RH WIND       PRES   REMARKS
ALPENA         FAIR      40  28  62 CALM      30.39R
BEAVER ISLAND  FAIR      39  25  57 CALM      30.40R
BELLAIRE       FAIR      39  27  62 CALM      30.38S
CADILLAC       FAIR      47  15  28 NW6       30.35R
CHARLEVOIX     FAIR      44  23  44 CALM      30.42R
FRANKFORT      FAIR      39  22  52 CALM      30.38S
GAYLORD        FAIR      47  14  26 CALM      30.37R
GRAYLING       FAIR      44  18  35 CALM      30.36R
HARBOR SPRINGS FAIR      40  19  42 CALM      30.39S
HOUGHTON LAKE  FAIR      45  22  40 CALM      30.36R
MANISTEE       FAIR      42  20  41 CALM      30.38R
OSCODA         FAIR      43  20  39 CALM      30.39R
PELLSTON       FAIR      44  20  38 CALM      30.39R
ROGERS CITY    FAIR      39  24  56 CALM      30.39S
TRAVERSE CITY  FAIR      45  23  42 CALM      30.37R
$$
MIZ007>008-015-220200-
EASTERN UPPER MICHIGAN

CITY           SKY/WX    TMP DP  RH WIND       PRES   REMARKS
KINROSS        FAIR      47  16  29 SW6       30.38R
MACKINAC ISLAN FAIR      43  15  32 W9        30.38R
NEWBERRY       FAIR      40  25  54 SW7       30.36S
S. S. MARIE    FAIR      49  20  31 SW7       30.36R
MUNISING         N/A     35  25  66 CALM      30.37R
$$
MIZ004>006-011>014-085-220200-
CENTRAL UPPER MICHIGAN

CITY           SKY/WX    TMP DP  RH WIND       PRES   REMARKS
MANISTIQUE     FAIR      37  31  81 S7        30.37R WCI  31
ESCANABA       FAIR      44  23  43 S6        30.36R
MENOMINEE      FAIR      48  20  32 S5        30.36R
SAWYER-GWINN   CLEAR     43  14  31 NE6       30.36R
$$
MIZ001>003-009>011-084-220200-
WESTERN UPPER MICHIGAN

CITY           SKY/WX    TMP DP  RH WIND       PRES   REMARKS
IRON MOUNTAIN  FAIR      53  16  23 NE6       30.30R
HOUGHTON       FAIR      46  13  26 E3        30.34S
COPPER HARBOR    N/A     37  26  64 SW3       30.35F
IRONWOOD       FAIR      50  17  27 NE3       30.34S
$$

ABBREVIATIONS USED IN REMARKS
   TC - TEMPERATURE IN CELSIUS
  WCI - WIND CHILL INDEX
   HX - HEAT INDEX
  VSB - VISIBILITY





USA.gov is the U.S. government's official web portal to all federal, state and local government web resources and services.